Location: Bingham
(33.8461°N, 118.0592°W)
Time: 04:29:07
(UTC+00:00)

Daily predictions for brighter satellites

Satellite Brightness Start Highest point End
(mag) Time Altitude Azimuth Time Altitude Azimuth Time Altitude Azimuth
Okean 2 Rocket 3.8 03:26:30 10° NNE 03:30:40 36° E 03:34:48 10° SSE
Cosmos 614 Rocket 4.0 03:29:36 10° NNW 03:34:49 90° SW 03:40:02 10° SSE
Cosmos 1400 Rocket 3.5 03:31:31 10° NNE 03:35:03 33° ENE 03:38:34 10° SE
Cosmos 2251 Rocket 3.9 03:30:57 10° NNW 03:36:13 70° WSW 03:41:29 10° S
Resurs 01 Rocket 3.4 03:34:45 10° ESE 03:37:37 17° ENE 03:40:29 10° NNE
Nadezhda 3 Rocket 4.2 03:32:37 10° S 03:38:45 79° W 03:44:56 10° N
Cosmos 2285 Rocket 4.5 03:33:10 10° SSE 03:39:07 42° E 03:45:06 10° NNE
Cosmos 2151 Rocket 4.3 03:36:16 10° NNE 03:40:17 35° E 03:44:17 10° SE
Meteor 1-15 Rocket 4.4 03:35:05 10° N 03:41:01 74° E 03:46:53 10° SSE
PEGASUS R/B 4.3 03:39:45 10° SSE 03:42:30 75° WSW 03:47:01 10° NNW
Cosmos 2056 Rocket 3.5 03:38:15 10° SSW 03:43:24 80° ESE 03:48:40 10° NNE
Cosmos 2263 Rocket 3.3 03:38:44 10° N 03:43:41 30° ENE 03:48:33 10° ESE
Cosmos 2297 Rocket 4.1 03:42:22 10° NW 03:47:04 27° WSW 03:51:45 10° SSW
Lacrosse 5 3.9 03:44:37 10° N 03:47:58 17° NE 03:51:17 10° ENE
Cosmos 2227 Rocket 3.7 03:45:45 10° NW 03:50:49 35° WSW 03:55:53 10° SSW
Cosmos 1842 3.3 03:47:52 10° S 03:51:44 62° E 03:55:37 10° NNE
Cosmos 407 Rocket 3.6 03:49:02 10° N 03:54:19 66° ENE 03:59:29 10° SSE
CZ-4 R/B 4.5 03:53:30 10° WSW 03:54:23 11° W 03:55:17 10° W
ERS-2 2.5 03:50:50 10° N 03:54:27 67° WNW 03:58:03 10° SSW
Cosmos 1674 Rocket 3.6 03:51:48 10° S 03:56:10 63° E 04:00:30 10° NNE
Cosmos 1300 Rocket 3.6 03:51:53 10° N 03:56:11 80° W 04:00:30 10° S
Helios 1A Rocket 3.6 03:54:09 10° S 03:58:08 54° W 04:02:07 10° NNW
Genesis I 3.3 03:57:22 10° SSW 04:01:09 80° WNW 04:05:02 10° NNE
Cosmos 1339 Rocket 4.5 03:55:14 10° S 04:01:24 67° E 04:07:29 10° NNE
Cosmos 1420 Rocket 3.9 03:56:33 10° S 04:01:41 74° ESE 04:06:52 10° NNE
Cosmos 1766 3.2 04:00:10 10° N 04:04:02 84° W 04:07:53 10° S
USA 186 3.5 04:02:33 10° SSW 04:04:49 25° W 04:07:15 10° NW
Cosmos 1190 Rocket 4.1 04:01:30 10° N 04:06:46 63° ENE 04:11:13 14° SSE
MOS 1 4.3 04:02:26 10° SSE 04:08:07 77° ENE 04:13:49 10° N
SJ-6B 3.7 04:07:16 10° S 04:11:15 50° W 04:15:14 10° NNW
Cosmos 1470 3.4 04:11:26 10° N 04:15:09 38° E 04:17:14 21° SE
KM-V1 4.2 04:13:10 10° WSW 04:15:45 46° SSE 04:18:59 15° E
Cosmos 1674 4.4 04:16:07 16° E 04:16:24 16° E 04:18:44 10° NE
SPOT 3 Rocket 4.0 04:14:38 18° SE 04:18:10 44° ENE 04:23:04 10° N
NOSS 3-2 (C) 4.2 04:17:31 10° SW 04:22:48 52° NW 04:28:46 10° NNE
Aureole 2 Rocket 4.0 04:21:47 10° NW 04:23:31 18° WSW 04:25:13 10° SSW
OBJECT-B 3.0 04:21:00 10° SSW 04:23:36 22° W 04:26:11 10° NW
ASTRO E2 3.8 04:20:22 10° SW 04:23:36 24° SSE 04:23:58 24° SSE
IRS-1A Rocket 4.5 04:17:46 10° S 04:23:40 79° WSW 04:29:31 10° NNW
CZ-2C R/B 4.0 04:22:12 10° NNE 04:26:52 51° E 04:30:28 16° S
Cosmos 1315 Rocket 3.3 04:23:25 10° N 04:27:24 45° E 04:29:13 27° SE
ATLAS 3B R/B 3.5 04:26:19 20° SE 04:28:42 25° ESE 04:33:52 10° ENE
SL-16 R/B 2.3 04:24:48 10° SSW 04:30:28 79° WNW 04:36:09 10° NNE
Cosmos 2360 Rocket 2.5 04:26:52 12° S 04:31:41 43° ESE 04:36:59 10° NE
Cosmos 2322 Rocket 2.1 04:27:24 10° SSW 04:33:05 83° ESE 04:38:48 10° NNE
Ariane Rocket 3.5 04:30:58 11° S 04:35:42 59° W 04:40:45 10° NNW
Resurs 1-3 4.3 04:32:41 12° S 04:36:36 51° W 04:40:52 10° NNW
Cosmos 1726 1.9 04:33:38 10° N 04:37:15 73° E 04:38:43 34° SSE
Delta 128 4.1 04:33:50 10° WSW 04:38:02 40° S 04:39:33 31° SE
Okean 1 Rocket 3.0 04:34:41 10° N 04:39:03 80° E 04:41:27 27° SSE
Cosmos 676 Rocket 4.0 04:34:11 10° NNW 04:39:31 75° ENE 04:42:30 27° SSE
Cosmos 1954 Rocket 4.0 04:34:56 10° NNW 04:40:16 78° ENE 04:43:14 27° SSE
Cosmos 1455 Rocket 4.4 04:38:14 10° NNE 04:41:50 24° ENE 04:42:32 23° E
Okean 2 4.4 04:39:05 10° SSW 04:43:00 44° W 04:46:55 10° N
Cosmos 2227 4.1 04:38:23 10° NNW 04:44:02 86° ENE 04:47:10 27° SSE
Cosmos 1758 3.4 04:42:05 10° N 04:46:00 58° E 04:47:05 41° SE
COSMOS 2428 4.4 04:48:51 15° E 04:48:51 15° E 04:51:13 10° ENE
Lacrosse 5 rocket 0.9 04:45:05 10° SSW 04:48:50 68° SE 04:52:27 10° NE
BREEZE M DEB (TANK) 4.4 04:49:04 30° SE 04:49:55 32° ESE 04:59:40 10° NE
Cosmos 1707 3.4 04:48:45 14° SSW 04:51:56 52° W 04:55:44 10° N
Cosmos 2237 4.1 04:47:11 10° SSW 04:52:52 86° ESE 04:58:36 10° NNE
USA 81 4.0 04:48:42 10° N 04:53:58 73° E 04:56:25 32° SSE
Cosmos 1110 Rocket 4.0 04:55:36 31° S 04:57:55 58° ESE 05:03:00 10° NNE
USA 215 3.5 04:53:25 10° ENE 04:59:35 43° SE 05:05:44 10° SSW
ATLAS 2A CENTAUR R/B 3.5 04:48:27 10° SW 05:02:54 33° S 05:04:20 30° SSE
SPOT 5 3.6 05:09:16 37° ESE 05:10:21 42° ENE 05:15:04 10° N
Cosmos 2173 Rocket 4.3 05:04:22 10° N 05:10:35 52° E 05:12:37 38° SE
Cosmos 1953 2.6 05:09:42 10° N 05:13:34 50° ENE 05:13:34 50° ENE
Resurs 01 Rocket 2.9 05:11:28 20° SSW 05:13:48 34° W 05:17:49 10° NNW
Cosmos 1025 Rocket 3.1 05:14:15 55° ESE 05:14:23 56° E 05:18:40 10° NNE
Cosmos 1844 Rocket 3.6 05:09:26 10° N 05:14:35 34° ENE 05:15:57 30° E
Cosmos 1727 Rocket 4.5 05:08:55 12° SSW 05:14:49 61° W 05:21:02 10° N
CARTOSAT-1 3.4 05:16:30 63° ESE 05:16:58 70° ENE 05:21:16 10° N
Cosmos 1626 2.6 05:19:34 47° NE 05:19:34 47° NE 05:22:27 10° NNE
USA 245 3.8 05:17:47 50° S 05:18:55 76° WSW 05:24:13 10° NNW
Terra 2.6 05:20:33 34° E 05:20:50 35° ENE 05:25:08 10° N
BREEZE-M DEB (TANK) 3.9 05:22:58 10° W 05:24:56 22° NNW 05:27:41 10° NNE
Cosmos 1975 Rocket 3.8 05:23:52 31° SW 05:25:36 50° W 05:29:51 10° N
Cosmos 2263 Rocket 3.5 05:22:32 10° NW 05:27:30 32° WSW 05:30:16 21° SSW
Cosmos 2333 4.1 05:27:12 44° S 05:29:03 76° ESE 05:34:48 10° NNE
SPOT 1/Viking Rocket 4.0 05:28:08 36° SSW 05:29:55 53° W 05:34:57 10° NNW
Lacrosse 5 1.7 05:26:23 10° NW 05:31:28 82° SW 05:32:05 68° SSE
Cosmos 1461 4.0 05:29:12 10° N 05:32:40 32° NE 05:32:40 32° NE
Geosat 3.9 05:35:56 66° ESE 05:36:33 78° ENE 05:41:35 10° NNW
Cosmos 1850 Rocket 3.9 05:31:23 10° NNW 05:36:41 87° WSW 05:37:26 67° S
Cosmos 1802 Rocket 4.0 05:32:30 10° N 05:38:47 70° E 05:40:08 55° SE
Cosmos 2333 Rocket 2.1 05:38:37 58° S 05:39:43 76° ESE 05:45:27 10° NNE
Spot 2 Rocket 3.7 05:38:48 51° SSW 05:39:48 62° WSW 05:44:49 10° NNW
ERS-1 Rocket 2.8 05:44:36 74° S 05:45:02 85° WSW 05:50:06 10° NNW
ATLAS CENTAUR R/B 3.5 05:43:44 10° N 05:46:56 19° NE 05:47:04 19° NE
ARIANE 5 R/B 3.2 05:51:18 47° WSW 05:51:26 47° W 05:55:44 10° NNW
Cosmos 2219 Rocket 2.0 05:52:52 72° S 05:53:27 84° ESE 05:59:10 10° NNE
Cosmos 1459 Rocket 4.1 05:49:47 10° NNW 05:55:47 66° W 05:57:11 50° SSW
Cosmos 1844 3.6 05:53:59 10° NNW 05:59:33 69° ENE 05:59:43 69° E
Meteor 1-24 Rocket 3.7 06:01:43 60° ENE 06:01:43 60° ENE 06:06:33 10° NNE
Cosmos 1302 Rocket 4.0 06:03:20 72° WSW 06:03:40 75° WNW 06:08:56 10° NNE
Cosmos 1300 4.4 06:03:09 10° N 06:05:14 30° NNE 06:05:14 30° NNE
Cosmos 2237 Rocket 3.8 06:11:17 22° ENE 06:11:17 22° ENE 06:13:50 10° NE
Aureole 1 Rocket 4.3 06:05:07 10° NNW 06:11:29 73° WSW 06:12:59 57° SSW
H-2A R/B 4.5 06:08:21 10° N 06:11:39 43° NW 06:11:39 43° NW
Cosmos 2061 Rocket 4.0 06:07:17 10° N 06:13:43 79° W 06:14:32 68° SSW
Cosmos 2360 Rocket 4.3 06:11:26 10° WSW 06:15:48 23° WNW 06:20:11 10° N
Cosmos 1864 Rocket 4.4 06:12:18 10° N 06:18:29 75° W 06:18:59 70° SW
ATLAS 3B R/B 3.3 06:13:22 13° SW 06:18:56 50° NW 06:25:24 10° NNE
Lacrosse 5 rocket 4.4 06:26:54 10° WNW 06:28:14 12° NW 06:29:33 10° NNW
COSMOS 2428 3.1 06:30:48 53° W 06:31:32 56° WNW 06:37:11 10° NNE
Cosmos 1447 Rocket 4.3 06:33:30 89° W 06:33:30 89° W 06:39:44 10° N
Cosmos 2233 Rocket 3.8 06:29:54 10° N 06:35:58 87° NW 06:35:58 87° NW
NOSS 0 Rocket 3.9 06:41:11 72° NE 06:41:11 72° NE 06:46:48 10° NNE
USA 215 4.1 06:36:22 10° NNE 06:42:31 46° NW 06:48:41 10° WSW
Cosmos 2278 Rocket 3.4 06:42:45 10° N 06:47:35 33° ENE 06:47:35 33° ENE
Cosmos 968 Rocket 4.2 06:49:42 10° NNW 06:53:30 51° NNW 06:53:30 51° NNW
ATLAS CENTAUR R/B 3.5 06:56:56 47° NE 06:56:56 47° NE 07:03:54 10° NE
Cosmos 1844 Rocket 4.2 06:53:34 10° NW 06:57:36 26° W 06:57:36 26° W
Terra 3.9 06:59:26 18° W 06:59:26 18° W 07:02:00 10° NW
GEOS 3 Rocket 4.2 07:01:29 56° NNE 07:01:29 56° NNE 07:06:05 10° NNW
Centaur D AC-28 3.9 07:05:38 56° S 07:07:02 59° SSE 08:08:10 10° E
USA 267 4.4 07:09:00 24° E 07:11:59 36° NE 07:17:49 10° NNW
Cosmos 1980 4.3 07:19:47 54° NNW 07:19:47 54° NNW 07:24:38 10° NNE
Cosmos 1464 Rocket 4.2 07:14:08 10° N 07:19:50 68° NE 07:19:50 68° NE
ATLAS CENTAUR R/B 3.8 07:21:42 10° NW 07:23:12 20° NW 07:23:12 20° NW
SL-16 R/B 3.0 07:49:37 46° NE 07:49:37 46° NE 07:53:35 10° NNE
Cosmos 2237 Rocket 3.5 07:53:04 32° WNW 07:53:04 32° WNW 07:57:58 10° N
Cosmos 2034 Rocket 4.2 07:47:53 10° N 07:53:06 65° NNW 07:53:06 65° NNW
USA 229 DEB 4.5 07:56:00 37° ENE 07:56:00 37° ENE 08:00:30 10° NE
USA 229 4.5 07:56:07 37° ENE 07:56:07 37° ENE 08:00:35 10° NE
Thor Agena Rocket 4.4 07:55:40 10° N 07:59:22 46° N 07:59:22 46° N
SJ 16-02 3.6 07:59:37 10° N 08:01:47 21° NE 08:01:47 21° NE
NOSS 3-1 (C) 3.9 08:06:16 47° NNE 08:06:16 47° NNE 08:10:24 10° NNE
Tsikada Rocket 4.3 08:12:51 58° NW 08:12:51 58° NW 08:18:10 10° N
NOSS 3-1 (A) 4.3 08:15:57 37° ENE 08:15:57 37° ENE 08:19:38 10° NE
Cosmos 2297 4.3 08:24:39 10° NNW 08:29:30 53° NE 08:29:30 53° NE
Cosmos 2278 Rocket 4.0 08:26:59 10° NW 08:29:24 21° WNW 08:29:24 21° WNW
ATLAS 5 CENTAUR R/B 4.1 08:44:46 44° SSE 08:44:46 44° SSE 09:17:02 10° ESE
USA 267 3.7 08:56:19 48° W 08:56:19 48° W 09:01:10 10° NW
Cosmos 540 Rocket 4.3 09:02:22 44° ENE 09:02:22 44° ENE 09:06:15 10° NNE
Cosmos 1943 3.4 09:05:01 64° NE 09:05:01 64° NE 09:09:55 10° NNE
Cosmos 1898 Rocket 4.4 09:02:12 10° N 09:07:07 40° ENE 09:07:29 40° E
Cosmos 1603 3.8 09:10:36 73° NNE 09:10:36 73° NNE 09:15:43 10° NNE
Cosmos 1943 Rocket 2.6 09:08:57 10° NNW 09:13:12 53° NW 09:13:12 53° NW
Cosmos 2279 Rocket 4.1 09:11:07 10° NNW 09:16:53 63° WNW 09:16:53 63° WNW
NPP 4.0 09:13:54 10° NNE 09:19:00 55° E 09:19:00 55° E
Resurs 1-4 Rocket 2.2 09:18:32 10° NNE 09:23:30 75° NE 09:23:30 75° NE
X-37B 3.9 09:25:42 13° N 09:25:42 13° N 09:26:49 10° NNE
USA 306 4.3 09:29:59 34° ENE 09:29:59 34° ENE 09:32:32 10° NE
MOZ.5/SAFIR/RUBIN 5/SL-8 4.5 09:30:36 48° NNW 09:30:36 48° NNW 09:34:05 10° NNW
SL-16 R/B 4.3 09:31:28 13° WNW 09:32:35 14° NW 09:35:31 10° NNW
CZ-2D R/B 2.0 09:28:16 10° NNE 09:33:11 78° NNW 09:33:11 78° NNW
Cosmos 2221 3.4 09:29:20 10° N 09:32:33 47° NNE 09:32:33 47° NNE
Meteor 2-2 Rocket 4.2 09:28:59 10° N 09:35:03 89° E 09:35:29 78° S
Cosmos 2208 Rocket 4.5 09:37:00 51° ESE 09:37:14 51° ESE 09:42:29 10° NNE
AQUA 4.0 09:34:26 10° NNE 09:38:49 66° ENE 09:38:49 66° ENE
ADEOS II 2.6 09:35:48 10° NNE 09:40:54 49° E 09:41:23 48° ESE
Cosmos 2098 Rocket 3.7 09:41:14 70° W 09:41:18 70° W 09:46:29 10° N
SJ 16-02 3.9 09:38:24 10° NW 09:38:44 11° NW 09:38:44 11° NW
ARGOS Delta rocket 4.2 09:36:49 10° N 09:42:11 65° WNW 09:42:11 65° WNW
Nadezhda 4 Rocket 4.1 09:46:19 55° W 09:46:38 56° W 09:52:39 10° N
Cosmos 1606 3.9 09:43:04 10° N 09:45:53 41° NE 09:45:53 41° NE
Cosmos 2026 Rocket 4.1 09:47:20 51° SSE 09:48:49 67° E 09:55:05 10° NNE
SeaSat 1 3.6 09:45:05 10° NE 09:49:29 32° ESE 09:50:00 31° ESE
Cosmos 1242 Rocket 4.1 09:46:27 10° N 09:48:44 35° NNE 09:48:44 35° NNE
Cosmos 1437 Rocket 4.4 09:46:20 10° NNW 09:48:19 28° NNW 09:48:19 28° NNW
Cosmos 2369 Rocket 2.1 09:49:07 10° NNW 09:54:48 68° WSW 09:54:49 68° WSW
NOSS 2-2 (C) 4.4 09:56:17 37° NNE 09:56:17 37° NNE 09:58:31 10° NNE
GPS 2-04 Rocket1 4.1 09:57:39 31° E 09:57:39 31° E 09:59:47 10° E
SL-16 R/B 2.4 09:56:35 58° S 09:57:49 77° WSW 10:04:02 10° NNW
IDEFIX/ARIANE 42P 3.6 09:55:15 10° NNE 10:00:06 38° E 10:01:44 30° SE
Cosmos 1656 Rocket 3.7 09:54:44 10° NNW 10:00:27 82° ENE 10:02:09 47° SSE
Cosmos 2263 4.0 09:56:39 10° NNW 10:02:20 83° WSW 10:03:22 61° S
CZ-4C R/B 4.0 10:04:44 13° SE 10:06:14 15° ESE 10:08:55 10° ENE
Cosmos 1633 3.9 10:11:12 31° NNW 10:11:12 31° NNW 10:13:18 10° N
ATLAS 5 CENTAUR R/B 1.6 10:11:02 59° NNW 10:11:02 59° NNW 10:14:42 10° NNE
USA 307 3.3 10:10:57 54° NW 10:10:57 54° NW 10:15:03 10° NE
DELTA 2 R/B (1) 4.1 10:09:57 31° WNW 10:12:22 55° NNW 10:17:49 10° ENE
Meteor 2-15 Rocket 4.4 10:06:46 10° N 10:12:56 82° E 10:15:34 37° SSE
Meteor 2-15 4.3 10:09:41 10° N 10:15:48 72° W 10:17:32 48° SSW
Landsat 4 4.0 10:12:41 10° N 10:15:55 58° NNW 10:15:55 58° NNW
ATLAS 2A CENTAUR R/B 4.3 10:19:08 19° SE 10:19:08 19° SE 10:21:42 10° ESE
Helios 1B rocket 3.8 10:15:46 10° NNW 10:18:44 27° WNW 10:18:44 27° WNW
Cosmos 1932 4.3 10:15:24 10° NNW 10:21:37 83° WSW 10:26:25 18° SSE
Cosmos 1092 Rocket 4.3 10:23:35 41° WSW 10:24:50 46° W 10:30:43 10° N
Cosmos 2292 Rocket 3.3 10:25:58 55° NNE 10:25:58 55° NNE 10:28:24 10° N
USA 308 3.7 10:26:06 37° WNW 10:26:41 39° NW 10:30:41 10° NNE
ADEOS Rocket 3.4 10:22:03 23° S 10:27:12 84° WSW 10:34:13 10° NNW
Meteor 2-3 Rocket 3.6 10:26:23 43° S 10:28:18 89° W 10:33:54 10° N
Aureole 3 Rocket 3.5 10:25:04 10° NNW 10:29:08 52° W 10:29:34 50° WSW
IRS-1D 3.5 10:26:58 10° N 10:32:02 66° WNW 10:33:18 48° SW
CZ-4C R/B 4.2 10:33:07 23° SE 10:34:50 40° ENE 10:38:06 10° N
CBERS-1 3.9 10:30:39 10° N 10:35:47 78° WNW 10:37:28 43° SSW
Cosmos 1782 4.0 10:33:30 10° N 10:37:16 39° E 10:40:08 16° SE
ASTEX 1 4.0 10:36:42 16° SSE 10:40:29 56° E 10:45:19 10° N
H-2A R/B 3.1 10:40:56 26° S 10:40:56 26° S 10:48:33 10° ESE
Lacrosse 4 Rocket 2.4 10:40:39 10° N 10:44:33 44° ENE 10:48:23 10° SE
IRS-P3 4.2 10:41:17 10° NNE 10:46:37 74° ESE 10:49:38 26° S
MSX 3.8 10:44:11 10° NNE 10:49:58 85° ESE 10:53:24 26° S
Meteor 1-26 Rocket 4.4 10:46:07 10° N 10:52:01 84° E 10:57:51 11° S
Cosmos 1933 3.4 10:51:09 10° NNW 10:55:10 57° W 10:56:17 41° SSW
Alouette 2 Rocket 4.0 10:54:18 10° N 10:57:53 57° E 11:02:21 10° SSE
Cosmos 1271 Rocket 4.0 10:54:28 10° N 10:57:59 39° E 11:01:30 10° SSE
Cosmos 2298 Rocket 4.2 10:53:14 10° NNW 10:58:35 75° ENE 11:03:53 10° SSE
Cosmos 2151 4.4 10:58:32 22° W 10:58:47 22° WNW 11:02:06 10° NNW
X-37B 3.8 11:01:26 10° NNW 11:02:48 12° N 11:04:10 10° NNE
ERBS 2.1 11:02:15 54° WSW 11:02:51 77° NW 11:06:04 10° NE
Resurs 1-4 Rocket 4.3 11:01:37 10° NW 11:02:56 11° WNW 11:04:15 10° WNW
Cosmos 2150 Rocket 4.0 11:06:06 10° NNW 11:11:19 89° WSW 11:16:36 10° SSE
BREEZE-M DEB (TANK) 3.4 11:01:53 10° NW 11:11:24 62° SW 11:14:28 10° SSE
Meteor 2-16 Rocket 4.4 11:08:34 16° S 11:13:33 83° W 11:19:43 10° N
CZ-2D R/B 3.4 11:12:01 10° NNE 11:16:12 82° E 11:19:10 18° S
Delta 2 Rocket 3.4 11:15:05 30° SW 11:16:40 51° SSE 11:20:11 10° E
ADEOS II 3.8 11:16:46 10° NNW 11:20:08 17° WNW 11:22:19 14° W
CZ-2C R/B 2.9 11:17:01 10° NNE 11:21:53 57° E 11:26:33 10° S
Cosmos 1743 Rocket 4.4 11:19:26 10° SSE 11:23:36 49° E 11:27:51 10° NNE
Cosmos 1862 3.3 11:21:32 19° SSW 11:24:17 72° W 11:28:19 10° N
SeaSat 1 3.7 11:22:42 10° N 11:26:49 27° WNW 11:29:47 16° WSW
Cosmos 1125 Rocket 3.4 11:21:51 10° NNW 11:27:07 79° WSW 11:32:22 10° S
Cosmos 1553 Rocket 4.4 11:21:31 10° NNW 11:27:22 43° W 11:32:31 13° SSW
Intelsat 5-2 Rocket 4.4 11:25:57 17° SSW 11:27:30 22° SSE 11:32:31 10° ESE
SL-08 R/B 3.2 11:23:34 10° SSE 11:28:11 87° W 11:32:53 10° NNW
Cosmos 1328 Rocket 3.5 11:25:44 10° NNW 11:30:03 64° W 11:34:23 10° S
ARIANE 5 R/B 2.8 11:25:57 10° N 11:30:46 50° WNW 11:34:32 16° SW
S3M 4.0 11:25:55 10° NNW 11:31:58 61° W 11:38:04 10° S
Cosmos 2084 Rocket 3.6 11:30:54 16° SSW 11:33:57 61° ESE 11:37:51 10° NE
deb Kosmos-1763 3.8 11:32:19 17° SSW 11:34:53 82° WNW 11:38:24 10° NNE
GPS 2-04 Rocket1 2.9 11:31:44 11° W 11:35:24 65° N 11:39:06 10° E
IDEFIX/ARIANE 42P 4.0 11:35:27 10° NNW 11:39:22 22° WNW 11:42:33 13° WSW
Meteor 2-6 Rocket 4.3 11:36:25 10° N 11:42:18 81° W 11:48:00 10° S
CZ-4B R/B 4.2 11:39:45 10° N 11:44:38 39° WNW 11:48:59 12° SW
NOSS 3-4 (A) 4.4 11:39:59 10° S 11:45:20 41° ESE 11:50:52 10° NE
NOSS 3-4 (C) 4.4 11:40:08 10° S 11:45:28 40° ESE 11:50:59 10° NE
Cosmos 1484 Rocket 4.2 11:46:50 10° NNE 11:50:16 36° E 11:53:42 10° SSE
USA 281 3.7 11:46:11 10° S 11:52:09 37° WSW 11:58:09 10° NW
Sich 1 4.3 11:49:04 10° SSE 11:53:10 43° E 11:57:20 10° NNE
CZ-4C R/B 2.4 11:49:56 13° SW 11:53:55 47° NW 11:59:10 10° NNE
Tianhe-1 1.2 11:52:45 14° SW 11:55:23 68° SSE 11:58:31 10° ENE
